Weather History for Burns, OR

Change the Weather History Date:

Thursday, September 19, 2013

  Actual Average Record
Temperature  
Mean Temperature 51 °F 55 °F  
Max Temperature 73 °F 74 °F 90 °F (1952)
Min Temperature 28 °F 35 °F 24 °F (1965)
Degree Days  
Heating Degree Days 14 10  
Month to date heating degree days 78 143  
Since 1 July heating degree days 114 280  
Cooling Degree Days 0 0  
Month to date cooling degree days 21 7  
Year to date cooling degree days 372 213  
Growing Degree Days 2 (Base 50)    
Moisture  
Dew Point 28 °F    
Average Humidity 53    
Maximum Humidity 92    
Minimum Humidity 14    
Precipitation  
Precipitation 0.00 in 0.02 in 0.58 in (1986)
Month to date precipitation 0.66 0.27  
Year to date precipitation 4.58 7.25  
Sea Level Pressure  
Sea Level Pressure 30.06 in    
Wind  
Wind Speed 9 mph (ENE)    
Max Wind Speed 17 mph    
Max Gust Speed 25 mph    
Visibility 10 miles    
Events      
T = Trace of Precipitation, MM = Missing Value Source: NWS Daily Summary

Daily Weather History Graph

Daily Weather History Graph

Search for Another Location

Airport:

Trip Planner

Search our weather history database for the weather conditions in past years. The results will help you decide how hot, cold, wet, or windy it might be!

Date:

Astronomy

Sep. 19, 2013 Rise Set
Actual Time 6:40 AM PDT 6:58 PM PDT
Civil Twilight 6:11 AM PDT 7:26 PM PDT
Nautical Twilight 5:37 AM PDT 8:00 PM PDT
Astronomical Twilight 5:02 AM PDT 8:34 PM PDT
Moon 6:56 PM PDT (9/19) 6:56 AM PDT (9/19)
Length of Visible Light 13h 15m
Length of Day
12h 18m
Full, 100% of the Moon is Illuminated
Sep 19
Full
Sep 26
Last Quarter
Oct 4
New
Oct 11
First Quarter
Oct 18
Full

Hourly Weather History & Observations

Time (PDT) Temp. Windchill Dew Point Humidity Pressure Visibility Wind Dir Wind Speed Gust Speed Precip Events Conditions
12:53 AM 32.0 °F 28.7 °F 28.0 °F 85% 30.14 in 10.0 mi WSW 3.5 mph - N/A   Clear
1:53 AM 28.9 °F 25.2 °F 25.0 °F 85% 30.16 in 10.0 mi WSW 3.5 mph - N/A   Clear
2:53 AM 30.0 °F 23.2 °F 27.0 °F 88% 30.14 in 10.0 mi West 6.9 mph - N/A   Clear
3:53 AM 28.0 °F - 26.1 °F 92% 30.14 in 10.0 mi Calm Calm - N/A   Clear
4:53 AM 32.0 °F 25.6 °F 28.0 °F 85% 30.13 in 10.0 mi West 6.9 mph - N/A   Clear
5:53 AM 30.9 °F 24.3 °F 28.0 °F 89% 30.14 in 10.0 mi West 6.9 mph - N/A   Clear
6:53 AM 30.0 °F 23.2 °F 28.0 °F 92% 30.17 in 10.0 mi West 6.9 mph - N/A   Clear
7:53 AM 39.9 °F - 32.0 °F 73% 30.17 in 10.0 mi Calm Calm - N/A   Clear
8:53 AM 52.0 °F - 34.0 °F 50% 30.14 in 10.0 mi ENE 8.1 mph - N/A   Clear
9:53 AM 59.0 °F - 33.1 °F 38% 30.15 in 10.0 mi East 8.1 mph - N/A   Clear
10:53 AM 62.1 °F - 30.0 °F 30% 30.13 in 10.0 mi East 11.5 mph 23.0 mph N/A   Clear
11:53 AM 66.0 °F - 30.0 °F 26% 30.11 in 10.0 mi East 13.8 mph 19.6 mph N/A   Clear
12:53 PM 68.0 °F - 27.0 °F 21% 30.09 in 10.0 mi ESE 13.8 mph 20.7 mph N/A   Clear
1:53 PM 70.0 °F - 25.0 °F 18% 30.07 in 10.0 mi East 10.4 mph 17.3 mph N/A   Clear
2:53 PM 72.0 °F - 23.0 °F 16% 30.04 in 10.0 mi East 12.7 mph 18.4 mph N/A   Clear
3:53 PM 72.0 °F - 23.0 °F 16% 30.01 in 10.0 mi East 13.8 mph 19.6 mph N/A   Clear
4:53 PM 73.0 °F - 21.0 °F 14% 29.98 in 10.0 mi East 11.5 mph 16.1 mph N/A   Clear
5:53 PM 71.1 °F - 21.9 °F 16% 29.97 in 10.0 mi ENE 9.2 mph - N/A   Clear
6:53 PM 62.1 °F - 30.0 °F 30% 29.99 in 10.0 mi NE 11.5 mph - N/A   Clear
7:53 PM 57.9 °F - 30.9 °F 36% 29.97 in 10.0 mi NNE 13.8 mph - N/A   Clear
8:53 PM 55.0 °F - 30.9 °F 40% 29.95 in 10.0 mi NE 10.4 mph - N/A   Clear
9:53 PM 53.1 °F - 30.9 °F 43% 29.94 in 10.0 mi NE 11.5 mph - N/A   Clear
10:53 PM 51.1 °F - 28.9 °F 43% 29.93 in 10.0 mi NE 10.4 mph - N/A   Clear
11:53 PM 46.0 °F - 28.0 °F 50% 29.93 in 10.0 mi Calm Calm - N/A   Clear